Regional Weather Roundup
Issued by NWS

Home | Current Version | Previous Version | Text Only | Print | Product List | Glossary Off
Versions: 1 2 3 4 5 6 7 8 9 10 11 12 13 14 15 16 17 18 19 20 21 22 23 24 25 26 27 28 29 30 31 32 33 34 35 36 37 38 39 40 41 42 43 44 45 46 47 48 49 50

086
ASUS44 KJAN 231403
RWRMS

MISSISSIPPI HOURLY WEATHER ROUNDUP
NATIONAL WEATHER SERVICE JACKSON MS
900 AM CDT SAT AUG 23 2014

NOTE: "FAIR: INDICATES FEW OR NO CLOUDS BELOW 12,000 FEET WITH NO
SIGNIFICANT WEATHER AND/OR OBSTRUCTIONS TO VISIBILITY.

MSZ001>002-007>008-010>013-018>021-025>028-034>036-231500-
NORTHWEST MISSISSIPPI

CITY           SKY/WX    TMP DP  RH WIND       PRES   REMARKS
CLARKSDALE     FAIR      82  75  78 CALM      30.04S
CLEVELAND      FAIR      81  76  82 W5        30.03S
GREENWOOD      SUNNY     80  74  81 S5        30.05R
GREENVILLE     SUNNY     81  74  79 W6        30.03S
GRENADA        FAIR      79  72  78 CALM      30.05S
OLIVE BRANCH   SUNNY     82  79  89 SW3       30.03S HX  93
OXFORD         FAIR      81  72  74 W5        30.06S
TUNICA         SUNNY     82  73  74 SW6       30.03S
$$

MSZ003>006-009-014>017-022>024-029>033-037>039-231500-
NORTHEAST MISSISSIPPI

CITY           SKY/WX    TMP DP  RH WIND       PRES   REMARKS
BELMONT        FAIR      81  74  79 W5        30.05F
COLUMBUS AFB   SUNNY     82  72  72 NW3       30.04S
CORINTH        FAIR      82  73  74 CALM      30.03F
GOLDN TRIANGLE SUNNY     82  72  69 N5        30.05S
STARKVILLE     FAIR      81  72  74 CALM      30.05S
TUPELO         SUNNY     84  72  67 VRB3      30.04S
$$

MSZ040-058-231500-
CENTRAL MISSISSIPPI

CITY           SKY/WX    TMP DP  RH WIND       PRES   REMARKS
JACKSON INTL   SUNNY     84  74  71 N3        30.06R HX  91
JACKSON HAWKNS SUNNY     84  73  69 NW5       30.06S HX  90
MERIDIAN KEY   SUNNY     84  72  67 N3        30.06S
MERIDIAN NAS   SUNNY     83  71  67 NW8       30.05S
RAYMOND        FAIR      81  75  83 NW3       30.06S
VICKSBURG      SUNNY     83  75  77 CALM      30.05S HX  90
$$

MSZ059>079-231500-
SOUTH MISSISSIPPI

CITY           SKY/WX    TMP DP  RH WIND       PRES   REMARKS
BROOKHAVEN     FAIR      82  77  83 NW6       30.08S HX  91
COLUMBIA       FAIR      82  75  78 MISG      30.04S
HATTIESBURG    SUNNY     85  74  69 N6        30.05S HX  92
MCCOMB         SUNNY     85  74  69 NW8       30.06S HX  92
NATCHEZ        SUNNY     82  73  74 NW6       30.07S
PINE BELT      SUNNY     86  72  62 N8        30.07S HX  92
$$

MSZ080>082-231500-
COASTAL MISSISSIPPI

CITY           SKY/WX    TMP DP  RH WIND       PRES   REMARKS
BILOXI         SUNNY     87  76  69 VRB3      30.03S HX  97
PASCAGOULA     SUNNY     86  76  71 N6        30.02F HX  96
GULFPORT       SUNNY     86  75  69 N6        30.02S HX  95
$$



USA.gov is the U.S. government's official web portal to all federal, state and local government web resources and services.